VCP551 EGLL-LEPA

Flight info

Callsign VCP551
Flight time 1h 58m
Altitude 37000
Route MAXIT Y803 MID L151 SITET UN859 SOPIL DCT BALAN DCT EVPOK DCT NARAK DCT GAI DCT LOMRA DCT ROCAN DCT IBRAP N13 LORES
Aircraft B738/M-SDE2E3FGHIRWXY/LB1

Departure

Time 2026-05-04 11:06
Airport London Heathrow Airport (EGLL)

Arrival

Time 2026-05-04 13:04
Airport Palma de Mallorca Airport (LEPA)
Time Latitude Longitude Altitude Speed Heading
2026-05-04 10:32 51.46996 -0.44672 91 ft 0 kts 270°
2026-05-04 10:57 51.46996 -0.44670 91 ft 1 kts 270°
2026-05-04 10:57 51.46996 -0.44647 91 ft 2 kts 270°
2026-05-04 10:57 51.46996 -0.44622 91 ft 2 kts 270°
2026-05-04 10:58 51.46996 -0.44598 91 ft 2 kts 270°
2026-05-04 10:58 51.46998 -0.44574 91 ft 2 kts 238°
2026-05-04 10:58 51.47009 -0.44557 91 ft 2 kts 206°
2026-05-04 10:58 51.47023 -0.44552 91 ft 2 kts 174°
2026-05-04 10:59 51.47035 -0.44554 91 ft 0 kts 180°
2026-05-04 10:59 51.47037 -0.44554 91 ft 0 kts 181°
2026-05-04 11:01 51.47033 -0.44554 91 ft 2 kts 181°
2026-05-04 11:02 51.46992 -0.44554 91 ft 9 kts 180°
2026-05-04 11:02 51.46906 -0.44552 91 ft 15 kts 179°
2026-05-04 11:05 51.46485 -0.46494 91 ft 154 kts 270°
2026-05-04 11:06 51.46475 -0.48411 341 ft 175 kts 271°
2026-05-04 11:06 51.46476 -0.50320 1008 ft 173 kts 271°
2026-05-04 11:06 51.46442 -0.52270 1548 ft 178 kts 267°
2026-05-04 11:06 51.46120 -0.54257 1905 ft 192 kts 243°
2026-05-04 11:08 51.37182 -0.61210 4943 ft 273 kts 164°
2026-05-04 11:10 51.23790 -0.56351 9304 ft 291 kts 186°
2026-05-04 11:12 51.08391 -0.61540 12792 ft 358 kts 191°
2026-05-04 11:12 51.05913 -0.61962 13485 ft 361 kts 180°
2026-05-04 11:12 51.03427 -0.61362 14188 ft 364 kts 163°
2026-05-04 11:12 51.01084 -0.59973 14879 ft 367 kts 159°
2026-05-04 11:13 50.98716 -0.58357 15610 ft 370 kts 158°
2026-05-04 11:13 50.96373 -0.56713 16299 ft 373 kts 158°
2026-05-04 11:13 50.93990 -0.55056 16978 ft 376 kts 158°
2026-05-04 11:13 50.91561 -0.53400 17659 ft 379 kts 158°
2026-05-04 11:14 50.89138 -0.51778 18320 ft 382 kts 159°
2026-05-04 11:14 50.86695 -0.50161 18972 ft 385 kts 159°
2026-05-04 11:14 50.84223 -0.48536 19615 ft 387 kts 159°
2026-05-04 11:16 50.66349 -0.36872 23531 ft 409 kts 160°
2026-05-04 11:16 50.63715 -0.35159 24036 ft 411 kts 160°
2026-05-04 11:16 50.61093 -0.33457 24529 ft 414 kts 160°
2026-05-04 11:17 50.58411 -0.31716 25028 ft 416 kts 160°
2026-05-04 11:17 50.55745 -0.29989 25513 ft 419 kts 160°
2026-05-04 11:19 50.36646 -0.17676 28926 ft 429 kts 161°
2026-05-04 11:19 50.33890 -0.15908 29389 ft 430 kts 161°
2026-05-04 11:19 50.31142 -0.14147 29856 ft 432 kts 161°
2026-05-04 11:19 50.28369 -0.12372 30426 ft 429 kts 161°
2026-05-04 11:20 50.25641 -0.10625 31116 ft 424 kts 161°
2026-05-04 11:20 50.22924 -0.08887 31697 ft 420 kts 161°
2026-05-04 11:20 50.20240 -0.07168 32264 ft 418 kts 160°
2026-05-04 11:20 50.17583 -0.05396 32803 ft 415 kts 159°
2026-05-04 11:22 49.98496 0.04719 35419 ft 412 kts 169°
2026-05-04 11:22 49.95691 0.05771 35763 ft 410 kts 169°
2026-05-04 11:23 49.92931 0.06812 35988 ft 411 kts 168°
2026-05-04 11:23 49.90172 0.07861 36229 ft 411 kts 168°
2026-05-04 11:24 49.73385 0.14356 36998 ft 419 kts 168°
2026-05-04 11:25 49.70570 0.15450 37001 ft 420 kts 168°
2026-05-04 11:25 49.64917 0.17668 37002 ft 420 kts 168°
2026-05-04 11:27 49.39499 0.27903 37022 ft 420 kts 168°
2026-05-04 11:28 49.33846 0.30158 37012 ft 420 kts 168°
2026-05-04 11:28 49.28211 0.32426 37002 ft 419 kts 167°
2026-05-04 11:29 49.22630 0.34775 36999 ft 419 kts 167°
2026-05-04 11:29 49.17020 0.37157 36999 ft 419 kts 167°
2026-05-04 11:31 48.97384 0.45405 38008 ft 421 kts 167°
2026-05-04 11:33 48.77515 0.53647 38759 ft 425 kts 167°
2026-05-04 11:33 48.74673 0.54785 38870 ft 425 kts 168°
2026-05-04 11:33 48.71820 0.55905 38969 ft 426 kts 168°
2026-05-04 11:34 48.66086 0.58135 38987 ft 429 kts 168°
2026-05-04 11:34 48.60274 0.60389 38988 ft 434 kts 168°
2026-05-04 11:35 48.54438 0.62657 38988 ft 432 kts 168°
2026-05-04 11:35 48.48644 0.64936 38987 ft 431 kts 167°
2026-05-04 11:36 48.42858 0.67288 38985 ft 431 kts 168°
2026-05-04 11:36 48.37054 0.69660 38984 ft 431 kts 168°
2026-05-04 11:37 48.31287 0.72007 38982 ft 430 kts 168°
2026-05-04 11:37 48.25775 0.74240 38980 ft 430 kts 168°
2026-05-04 11:38 48.20002 0.76544 38978 ft 430 kts 168°
2026-05-04 11:38 48.14246 0.78804 38977 ft 430 kts 168°
2026-05-04 11:39 48.08462 0.81068 38976 ft 429 kts 168°
2026-05-04 11:41 47.88290 0.88936 38976 ft 428 kts 168°
2026-05-04 11:41 47.82547 0.91169 38969 ft 426 kts 169°
2026-05-04 11:42 47.76830 0.93385 38960 ft 425 kts 169°
2026-05-04 11:42 47.71114 0.95594 38959 ft 426 kts 169°
2026-05-04 11:43 47.65396 0.97800 38958 ft 425 kts 169°
2026-05-04 11:43 47.59675 1.00002 38957 ft 425 kts 169°
2026-05-04 11:44 47.53985 1.02187 38954 ft 424 kts 169°
2026-05-04 11:44 47.48266 1.04377 38953 ft 424 kts 169°
2026-05-04 11:45 47.42537 1.06106 38951 ft 421 kts 176°
2026-05-04 11:45 47.36715 1.06507 38952 ft 419 kts 182°
2026-05-04 11:46 47.30888 1.06353 38950 ft 418 kts 184°
2026-05-04 11:46 47.25079 1.06133 38950 ft 418 kts 184°
2026-05-04 11:47 47.19263 1.05938 38950 ft 418 kts 184°
2026-05-04 11:47 47.13466 1.05774 38952 ft 418 kts 183°
2026-05-04 11:48 47.07634 1.05626 38954 ft 418 kts 183°
2026-05-04 11:48 47.01849 1.05484 38956 ft 418 kts 183°
2026-05-04 11:49 46.96024 1.05266 38957 ft 418 kts 184°
2026-05-04 11:49 46.90228 1.05003 38958 ft 418 kts 184°
2026-05-04 11:50 46.84375 1.04737 38959 ft 418 kts 184°
2026-05-04 11:50 46.78594 1.04483 38960 ft 418 kts 184°
2026-05-04 11:51 46.72791 1.04233 38960 ft 418 kts 184°
2026-05-04 11:51 46.66988 1.03986 38960 ft 417 kts 184°
2026-05-04 11:52 46.61200 1.03741 38961 ft 417 kts 184°
2026-05-04 11:52 46.55381 1.03519 38961 ft 418 kts 183°
2026-05-04 11:53 46.49577 1.04054 38962 ft 421 kts 174°
2026-05-04 11:53 46.43827 1.05712 38962 ft 423 kts 170°
2026-05-04 11:55 46.20967 1.13539 38958 ft 423 kts 170°
2026-05-04 11:56 46.15246 1.15441 38960 ft 423 kts 170°
2026-05-04 11:56 46.09512 1.17339 38961 ft 423 kts 170°
2026-05-04 11:57 46.03795 1.19226 38963 ft 423 kts 170°
2026-05-04 11:57 45.98079 1.21107 38965 ft 422 kts 170°
2026-05-04 11:58 45.92348 1.22990 38967 ft 422 kts 171°
2026-05-04 11:58 45.86592 1.24878 38967 ft 422 kts 171°
2026-05-04 11:59 45.80879 1.26747 38964 ft 422 kts 171°
2026-05-04 11:59 45.75160 1.28613 38964 ft 422 kts 171°
2026-05-04 12:00 45.69446 1.30475 38964 ft 422 kts 171°
2026-05-04 12:00 45.63726 1.32335 38965 ft 421 kts 171°
2026-05-04 12:01 45.58031 1.34182 38964 ft 421 kts 171°
2026-05-04 12:02 45.38040 1.40636 38955 ft 424 kts 171°
2026-05-04 12:03 45.32278 1.42487 38964 ft 424 kts 171°
2026-05-04 12:03 45.26566 1.44321 38968 ft 423 kts 171°
2026-05-04 12:04 45.20810 1.46163 38967 ft 423 kts 171°
2026-05-04 12:04 45.15097 1.47988 38967 ft 422 kts 171°
2026-05-04 12:05 45.09364 1.49816 38966 ft 423 kts 171°
2026-05-04 12:05 45.03604 1.51647 38965 ft 423 kts 171°
2026-05-04 12:06 44.97885 1.53463 38967 ft 423 kts 171°
2026-05-04 12:06 44.92166 1.55275 38970 ft 423 kts 171°
2026-05-04 12:07 44.86427 1.57089 38973 ft 422 kts 172°
2026-05-04 12:07 44.80679 1.58903 38976 ft 422 kts 172°
2026-05-04 12:08 44.74974 1.60700 38981 ft 421 kts 172°
2026-05-04 12:08 44.69265 1.62494 38984 ft 421 kts 172°
2026-05-04 12:09 44.63562 1.64282 38986 ft 421 kts 172°
2026-05-04 12:09 44.57853 1.66068 38987 ft 420 kts 173°
2026-05-04 12:10 44.52174 1.67842 38986 ft 420 kts 173°
2026-05-04 12:10 44.46445 1.69627 38984 ft 420 kts 173°
2026-05-04 12:11 44.40773 1.71392 38978 ft 419 kts 173°
2026-05-04 12:11 44.35068 1.73163 38971 ft 419 kts 173°
2026-05-04 12:12 44.29401 1.74917 38966 ft 419 kts 173°
2026-05-04 12:12 44.23714 1.76367 38962 ft 416 kts 176°
2026-05-04 12:14 44.00848 1.81222 38958 ft 416 kts 176°
2026-05-04 12:15 43.95153 1.82463 38959 ft 415 kts 177°
2026-05-04 12:15 43.89423 1.83267 38960 ft 412 kts 181°
2026-05-04 12:16 43.83715 1.83731 38958 ft 412 kts 182°
2026-05-04 12:16 43.77992 1.84193 38954 ft 412 kts 182°
2026-05-04 12:17 43.72282 1.84694 38952 ft 412 kts 181°
2026-05-04 12:17 43.66592 1.85222 38953 ft 412 kts 181°
2026-05-04 12:18 43.60847 1.85768 38953 ft 412 kts 181°
2026-05-04 12:18 43.55130 1.86317 38954 ft 412 kts 181°
2026-05-04 12:19 43.49411 1.86866 38956 ft 412 kts 181°
2026-05-04 12:19 43.43716 1.87413 38957 ft 412 kts 181°
2026-05-04 12:20 43.37987 1.87962 38957 ft 412 kts 181°
2026-05-04 12:20 43.32281 1.88508 38956 ft 412 kts 181°
2026-05-04 12:21 43.26571 1.89054 38958 ft 412 kts 181°
2026-05-04 12:21 43.20872 1.89599 38962 ft 411 kts 182°
2026-05-04 12:22 43.15153 1.90145 38969 ft 412 kts 182°
2026-05-04 12:22 43.09461 1.90686 38977 ft 412 kts 182°
2026-05-04 12:23 43.03728 1.91231 38982 ft 412 kts 182°
2026-05-04 12:23 42.98028 1.91771 38970 ft 412 kts 182°
2026-05-04 12:24 42.95149 1.92042 38858 ft 414 kts 182°
2026-05-04 12:24 42.92306 1.92311 38715 ft 414 kts 182°
2026-05-04 12:24 42.89439 1.92582 38566 ft 413 kts 182°
2026-05-04 12:24 42.86547 1.92856 38393 ft 413 kts 182°
2026-05-04 12:25 42.83711 1.93125 38212 ft 412 kts 182°
2026-05-04 12:25 42.80866 1.93394 38024 ft 410 kts 182°
2026-05-04 12:25 42.78029 1.93662 37829 ft 410 kts 182°
2026-05-04 12:25 42.75198 1.93929 37623 ft 409 kts 182°
2026-05-04 12:26 42.69526 1.94491 37504 ft 408 kts 181°
2026-05-04 12:26 42.63871 1.95797 37584 ft 415 kts 174°
2026-05-04 12:27 42.61081 1.96739 37757 ft 415 kts 173°
2026-05-04 12:27 42.58305 1.97745 37920 ft 415 kts 172°
2026-05-04 12:27 42.55516 1.98782 38078 ft 415 kts 172°
2026-05-04 12:27 42.52702 1.99829 38263 ft 416 kts 172°
2026-05-04 12:28 42.49907 2.00863 38449 ft 416 kts 172°
2026-05-04 12:28 42.47145 2.01877 38627 ft 416 kts 172°
2026-05-04 12:28 42.44360 2.02892 38801 ft 416 kts 173°
2026-05-04 12:28 42.41552 2.03907 38978 ft 416 kts 173°
2026-05-04 12:29 42.38761 2.04912 39106 ft 418 kts 173°
2026-05-04 12:29 42.35913 2.05930 39103 ft 424 kts 173°
2026-05-04 12:29 42.30229 2.07952 39035 ft 424 kts 173°
2026-05-04 12:30 42.24516 2.09987 38998 ft 422 kts 173°
2026-05-04 12:30 42.18852 2.11995 38961 ft 424 kts 173°
2026-05-04 12:31 42.13139 2.14017 38932 ft 422 kts 173°
2026-05-04 12:31 42.07468 2.16021 39037 ft 422 kts 173°
2026-05-04 12:32 41.98914 2.19029 38979 ft 423 kts 173°
2026-05-04 12:33 41.93240 2.21028 38951 ft 421 kts 173°
2026-05-04 12:33 41.87560 2.23018 38966 ft 424 kts 173°
2026-05-04 12:34 41.81877 2.25007 38966 ft 423 kts 173°
2026-05-04 12:34 41.76206 2.26990 38963 ft 422 kts 173°
2026-05-04 12:35 41.70521 2.28975 38960 ft 423 kts 173°
2026-05-04 12:35 41.64830 2.30959 38954 ft 423 kts 173°
2026-05-04 12:36 41.59150 2.32937 38949 ft 423 kts 173°
2026-05-04 12:36 41.53434 2.34922 38942 ft 423 kts 173°
2026-05-04 12:37 41.47747 2.36894 38936 ft 423 kts 173°
2026-05-04 12:37 41.44909 2.37878 38762 ft 422 kts 173°
2026-05-04 12:37 41.42061 2.38867 38378 ft 420 kts 173°
2026-05-04 12:37 41.39265 2.39834 37839 ft 421 kts 173°
2026-05-04 12:38 41.36419 2.40816 37239 ft 422 kts 173°
2026-05-04 12:38 41.33565 2.41797 36616 ft 424 kts 173°
2026-05-04 12:38 41.30737 2.42769 35983 ft 426 kts 173°
2026-05-04 12:38 41.27853 2.43760 35257 ft 428 kts 173°
2026-05-04 12:39 41.25000 2.44741 34533 ft 428 kts 173°
2026-05-04 12:39 41.22104 2.45736 33792 ft 429 kts 173°
2026-05-04 12:39 41.19220 2.46728 33045 ft 430 kts 173°
2026-05-04 12:39 41.16358 2.47712 32373 ft 425 kts 173°
2026-05-04 12:40 41.13518 2.48695 31876 ft 415 kts 173°
2026-05-04 12:40 41.10773 2.49648 31395 ft 407 kts 173°
2026-05-04 12:40 41.08047 2.50592 30920 ft 398 kts 173°
2026-05-04 12:40 41.05401 2.51505 30517 ft 389 kts 174°
2026-05-04 12:41 41.02823 2.52388 30080 ft 383 kts 174°
2026-05-04 12:41 41.00257 2.53264 29650 ft 380 kts 174°
2026-05-04 12:41 40.97672 2.54135 29198 ft 386 kts 174°
2026-05-04 12:41 40.95068 2.55011 28713 ft 385 kts 173°
2026-05-04 12:42 40.92508 2.55879 28239 ft 380 kts 173°
2026-05-04 12:42 40.89955 2.56748 27769 ft 375 kts 173°
2026-05-04 12:42 40.87421 2.57612 27303 ft 371 kts 173°
2026-05-04 12:42 40.84938 2.58459 26827 ft 367 kts 173°
2026-05-04 12:43 40.82506 2.59287 26368 ft 363 kts 173°
2026-05-04 12:43 40.80032 2.60123 25911 ft 367 kts 173°
2026-05-04 12:43 40.77576 2.60947 25453 ft 370 kts 173°
2026-05-04 12:43 40.75075 2.61790 24980 ft 366 kts 173°
2026-05-04 12:44 40.72646 2.62615 24515 ft 362 kts 173°
2026-05-04 12:44 40.70228 2.63437 24056 ft 357 kts 173°
2026-05-04 12:44 40.67843 2.64248 23604 ft 353 kts 173°
2026-05-04 12:44 40.65434 2.65060 23156 ft 357 kts 174°
2026-05-04 12:45 40.63006 2.65872 22694 ft 360 kts 173°
2026-05-04 12:45 40.60613 2.66677 22229 ft 356 kts 173°
2026-05-04 12:45 40.58244 2.67478 21774 ft 352 kts 173°
2026-05-04 12:45 40.55865 2.68283 21323 ft 348 kts 173°
2026-05-04 12:46 40.53547 2.69067 20878 ft 345 kts 173°
2026-05-04 12:46 40.51232 2.69916 20431 ft 352 kts 170°
2026-05-04 12:46 40.48907 2.71055 19963 ft 359 kts 163°
2026-05-04 12:46 40.46672 2.72483 19500 ft 358 kts 159°
2026-05-04 12:47 40.44471 2.74058 19026 ft 356 kts 158°
2026-05-04 12:47 40.42338 2.75649 18537 ft 354 kts 157°
2026-05-04 12:47 40.40217 2.77248 18054 ft 351 kts 157°
2026-05-04 12:47 40.38095 2.78835 17577 ft 348 kts 157°
2026-05-04 12:48 40.36002 2.80381 17111 ft 345 kts 157°
2026-05-04 12:48 40.33919 2.81903 16641 ft 343 kts 157°
2026-05-04 12:48 40.31841 2.83410 16180 ft 341 kts 157°
2026-05-04 12:48 40.29764 2.84906 15720 ft 345 kts 156°
2026-05-04 12:49 40.27672 2.86410 15247 ft 344 kts 156°
2026-05-04 12:49 40.25574 2.87922 14799 ft 341 kts 156°
2026-05-04 12:49 40.23518 2.89406 14546 ft 331 kts 156°
2026-05-04 12:49 40.21549 2.90830 14314 ft 321 kts 156°
2026-05-04 12:50 40.19581 2.92247 13863 ft 320 kts 156°
2026-05-04 12:50 40.17662 2.93624 13450 ft 317 kts 156°
2026-05-04 12:50 40.15720 2.95017 13034 ft 315 kts 155°
2026-05-04 12:50 40.13823 2.96378 12629 ft 312 kts 155°
2026-05-04 12:51 40.11939 2.97729 12227 ft 309 kts 155°
2026-05-04 12:51 40.10064 2.99073 11821 ft 307 kts 155°
2026-05-04 12:51 40.08186 3.00418 11417 ft 304 kts 155°
2026-05-04 12:51 40.06345 3.01737 11019 ft 301 kts 155°
2026-05-04 12:52 40.04523 3.03041 10625 ft 298 kts 155°
2026-05-04 12:52 40.02719 3.04331 10237 ft 295 kts 155°
2026-05-04 12:52 40.00935 3.05607 9956 ft 288 kts 155°
2026-05-04 12:52 39.99201 3.06848 9656 ft 280 kts 155°
2026-05-04 12:53 39.97529 3.08045 9305 ft 270 kts 155°
2026-05-04 12:53 39.95919 3.09196 9082 ft 257 kts 155°
2026-05-04 12:53 39.94361 3.10309 8948 ft 249 kts 155°
2026-05-04 12:53 39.92805 3.11241 8822 ft 246 kts 167°
2026-05-04 12:54 39.91151 3.11474 8491 ft 239 kts 188°
2026-05-04 12:54 39.89496 3.11193 8179 ft 237 kts 192°
2026-05-04 12:54 39.87870 3.10909 7877 ft 235 kts 189°
2026-05-04 12:54 39.86246 3.10700 7653 ft 232 kts 189°
2026-05-04 12:55 39.84638 3.10792 7487 ft 239 kts 167°
2026-05-04 12:55 39.83155 3.11872 7339 ft 248 kts 146°
2026-05-04 12:55 39.81749 3.13034 7038 ft 239 kts 167°
2026-05-04 12:55 39.80158 3.13178 6577 ft 228 kts 198°
2026-05-04 12:56 39.78670 3.12486 6169 ft 223 kts 205°
2026-05-04 12:56 39.77242 3.11744 5742 ft 222 kts 204°
2026-05-04 12:56 39.75812 3.11052 5605 ft 219 kts 202°
2026-05-04 12:56 39.74350 3.10366 5456 ft 222 kts 202°
2026-05-04 12:57 39.72902 3.09685 5310 ft 222 kts 202°
2026-05-04 12:57 39.71505 3.08854 5146 ft 218 kts 217°
2026-05-04 12:57 39.70458 3.07524 5037 ft 206 kts 232°
2026-05-04 12:57 39.69660 3.06028 4884 ft 197 kts 236°
2026-05-04 12:58 39.68951 3.04570 4743 ft 187 kts 237°
2026-05-04 12:58 39.68281 3.03158 4587 ft 178 kts 237°
2026-05-04 12:58 39.67645 3.01809 4533 ft 175 kts 237°
2026-05-04 12:58 39.66994 3.00426 4381 ft 180 kts 237°
2026-05-04 12:59 39.66338 2.99030 4051 ft 181 kts 237°
2026-05-04 12:59 39.65700 2.97673 3817 ft 174 kts 237°
2026-05-04 12:59 39.65074 2.96343 3586 ft 168 kts 237°
2026-05-04 12:59 39.64474 2.95068 3375 ft 167 kts 237°
2026-05-04 13:00 39.63865 2.93776 3162 ft 168 kts 237°
2026-05-04 13:00 39.63255 2.92480 2931 ft 168 kts 237°
2026-05-04 13:00 39.62652 2.91202 2713 ft 167 kts 237°
2026-05-04 13:00 39.62045 2.89913 2480 ft 167 kts 237°
2026-05-04 13:01 39.61441 2.88632 2249 ft 167 kts 238°
2026-05-04 13:01 39.60834 2.87347 2017 ft 167 kts 238°
2026-05-04 13:01 39.60227 2.86061 1786 ft 167 kts 238°
2026-05-04 13:01 39.59618 2.84769 1560 ft 164 kts 238°
2026-05-04 13:02 39.59045 2.83557 1378 ft 152 kts 238°
2026-05-04 13:02 39.58500 2.82407 1140 ft 148 kts 238°
2026-05-04 13:02 39.57972 2.81290 949 ft 145 kts 238°
2026-05-04 13:02 39.57440 2.80165 753 ft 146 kts 238°
2026-05-04 13:03 39.56915 2.79056 561 ft 146 kts 238°
2026-05-04 13:03 39.56383 2.77933 368 ft 146 kts 238°
2026-05-04 13:03 39.55851 2.76811 179 ft 146 kts 238°
2026-05-04 13:03 39.55313 2.75683 21 ft 143 kts 238°
2026-05-04 13:04 39.54908 2.74829 26 ft 74 kts 238°
2026-05-04 13:04 39.54700 2.74390 34 ft 46 kts 238°
2026-05-04 13:04 39.54566 2.74048 40 ft 33 kts 255°
2026-05-04 13:04 39.54549 2.73791 42 ft 18 kts 271°
2026-05-04 13:05 39.54609 2.73755 42 ft 11 kts 46°
2026-05-04 13:05 39.54653 2.73840 42 ft 11 kts 58°
2026-05-04 13:05 39.54701 2.73941 43 ft 15 kts 59°
2026-05-04 13:05 39.54764 2.74077 42 ft 17 kts 59°
2026-05-04 13:06 39.54852 2.74106 42 ft 13 kts 329°
2026-05-04 13:06 39.54926 2.74047 44 ft 11 kts 328°
2026-05-04 13:06 39.54988 2.73998 47 ft 10 kts 329°
2026-05-04 13:06 39.55066 2.73938 47 ft 15 kts 329°
2026-05-04 13:07 39.55168 2.73856 48 ft 18 kts 328°
2026-05-04 13:07 39.55281 2.73766 44 ft 20 kts 328°
2026-05-04 13:07 39.55407 2.73668 39 ft 18 kts 328°
2026-05-04 13:07 39.55494 2.73597 34 ft 11 kts 314°
2026-05-04 13:08 39.55470 2.73504 33 ft 12 kts 238°
2026-05-04 13:08 39.55416 2.73391 32 ft 17 kts 239°
2026-05-04 13:08 39.55341 2.73231 29 ft 18 kts 237°
2026-05-04 13:08 39.55284 2.73111 27 ft 16 kts 239°
2026-05-04 13:09 39.55220 2.72981 24 ft 15 kts 239°
2026-05-04 13:09 39.55179 2.72895 22 ft 6 kts 234°
2026-05-04 13:09 39.55143 2.72887 23 ft 4 kts 168°
2026-05-04 13:09 39.55128 2.72892 24 ft 0 kts 168°
2026-05-04 13:10 39.55111 2.72896 24 ft 1 kts 168°
2026-05-04 13:10 39.55102 2.72899 25 ft 2 kts 168°
2026-05-04 13:10 39.55096 2.72900 25 ft 0 kts 168°
2026-05-04 13:10 39.55095 2.72900 25 ft 0 kts 168°